PHKEL EHAM-EHEH

Flight info

Callsign PHKEL
Flight time 0h 29m
Altitude 1400
Route V UTRECHT HERTOGENBOSCH T
Aircraft C172/L-SD/L1

Departure

Time 2026-04-28 14:36
Airport Amsterdam Airport Schiphol (EHAM)

Arrival

Time 2026-04-28 15:05
Airport Eindhoven Airport (EHEH)
Time Latitude Longitude Altitude Speed Heading
2026-04-28 14:21 52.30022 4.78878 -6 ft 0 kts 132°
2026-04-28 14:30 52.30024 4.78880 -6 ft 1 kts 337°
2026-04-28 14:30 52.30042 4.78845 -6 ft 8 kts 310°
2026-04-28 14:30 52.30067 4.78738 -6 ft 11 kts 221°
2026-04-28 14:30 52.30040 4.78648 -6 ft 11 kts 279°
2026-04-28 14:31 52.30053 4.78601 -6 ft 0 kts 307°
2026-04-28 14:31 52.30054 4.78598 -6 ft 0 kts 307°
2026-04-28 14:31 52.30056 4.78594 -6 ft 0 kts 307°
2026-04-28 14:31 52.30058 4.78591 -6 ft 1 kts 310°
2026-04-28 14:32 52.30091 4.78535 -6 ft 12 kts 316°
2026-04-28 14:32 52.30151 4.78504 -6 ft 4 kts 39°
2026-04-28 14:32 52.30157 4.78511 -6 ft 0 kts 41°
2026-04-28 14:35 52.30315 4.78746 10 ft 56 kts 40°
2026-04-28 14:35 52.30398 4.79397 181 ft 85 kts 109°
2026-04-28 14:35 52.29837 4.80049 310 ft 101 kts 133°
2026-04-28 14:35 52.29393 4.80857 480 ft 98 kts 104°
2026-04-28 14:36 52.29022 4.81849 658 ft 108 kts 124°
2026-04-28 14:36 52.28473 4.82697 855 ft 110 kts 128°
2026-04-28 14:36 52.27905 4.83557 1000 ft 117 kts 129°
2026-04-28 14:36 52.27278 4.84526 1035 ft 128 kts 128°
2026-04-28 14:37 52.26620 4.85538 1113 ft 130 kts 128°
2026-04-28 14:37 52.25967 4.86550 1187 ft 128 kts 127°
2026-04-28 14:37 52.25493 4.87749 1158 ft 118 kts 110°
2026-04-28 14:37 52.25137 4.88912 1115 ft 114 kts 107°
2026-04-28 14:38 52.24799 4.90058 1103 ft 109 kts 108°
2026-04-28 14:38 52.24468 4.91179 1075 ft 110 kts 107°
2026-04-28 14:38 52.24188 4.92336 1044 ft 110 kts 98°
2026-04-28 14:38 52.23875 4.93506 1018 ft 115 kts 107°
2026-04-28 14:39 52.23516 4.94664 1004 ft 112 kts 109°
2026-04-28 14:39 52.23166 4.95757 995 ft 105 kts 109°
2026-04-28 14:39 52.22826 4.96843 1005 ft 109 kts 108°
2026-04-28 14:39 52.22475 4.97990 1021 ft 112 kts 109°
2026-04-28 14:40 52.21949 4.98962 983 ft 126 kts 144°
2026-04-28 14:40 52.21358 4.99194 992 ft 134 kts 173°
2026-04-28 14:40 52.20121 4.99043 1005 ft 136 kts 183°
2026-04-28 14:40 52.19158 4.98898 1004 ft 138 kts 182°
2026-04-28 14:41 52.18205 4.98762 1002 ft 139 kts 183°
2026-04-28 14:41 52.17229 4.98633 1006 ft 139 kts 180°
2026-04-28 14:41 52.16276 4.98483 1010 ft 137 kts 181°
2026-04-28 14:41 52.15326 4.98286 991 ft 138 kts 184°
2026-04-28 14:42 52.14358 4.98171 995 ft 138 kts 174°
2026-04-28 14:42 52.13433 4.98493 1011 ft 135 kts 163°
2026-04-28 14:42 52.12511 4.98766 1001 ft 135 kts 163°
2026-04-28 14:42 52.11577 4.99026 988 ft 136 kts 164°
2026-04-28 14:43 52.10650 4.99308 998 ft 135 kts 165°
2026-04-28 14:43 52.09726 4.99599 1000 ft 136 kts 164°
2026-04-28 14:43 52.08800 4.99891 1006 ft 136 kts 163°
2026-04-28 14:43 52.07889 5.00214 998 ft 131 kts 158°
2026-04-28 14:44 52.07023 5.00611 1002 ft 128 kts 157°
2026-04-28 14:44 52.06157 5.01024 1010 ft 125 kts 156°
2026-04-28 14:44 52.05322 5.01404 994 ft 126 kts 157°
2026-04-28 14:44 52.04476 5.01797 1008 ft 125 kts 157°
2026-04-28 14:45 52.03627 5.02210 1003 ft 129 kts 155°
2026-04-28 14:45 52.02786 5.02643 1015 ft 127 kts 153°
2026-04-28 14:45 52.01928 5.03116 999 ft 130 kts 154°
2026-04-28 14:45 52.01066 5.03608 1002 ft 131 kts 154°
2026-04-28 14:46 52.00208 5.04086 1004 ft 130 kts 154°
2026-04-28 14:46 51.99349 5.04586 1008 ft 128 kts 149°
2026-04-28 14:46 51.98526 5.05159 982 ft 130 kts 148°
2026-04-28 14:46 51.97706 5.05737 997 ft 127 kts 148°
2026-04-28 14:47 51.96898 5.06299 989 ft 126 kts 149°
2026-04-28 14:47 51.96080 5.06919 987 ft 131 kts 149°
2026-04-28 14:47 51.95256 5.07570 999 ft 132 kts 149°
2026-04-28 14:47 51.94424 5.08200 991 ft 132 kts 147°
2026-04-28 14:48 51.93593 5.08811 968 ft 132 kts 149°
2026-04-28 14:48 51.92755 5.09431 983 ft 130 kts 148°
2026-04-28 14:48 51.91927 5.10035 973 ft 130 kts 148°
2026-04-28 14:48 51.91112 5.10625 956 ft 131 kts 150°
2026-04-28 14:49 51.90297 5.11245 989 ft 128 kts 148°
2026-04-28 14:49 51.89465 5.11857 950 ft 131 kts 149°
2026-04-28 14:49 51.88654 5.12467 944 ft 132 kts 149°
2026-04-28 14:49 51.87832 5.13081 969 ft 130 kts 150°
2026-04-28 14:50 51.86984 5.13719 964 ft 132 kts 149°
2026-04-28 14:50 51.86156 5.14333 955 ft 132 kts 149°
2026-04-28 14:50 51.85314 5.14959 973 ft 129 kts 149°
2026-04-28 14:50 51.84507 5.15532 945 ft 126 kts 149°
2026-04-28 14:51 51.83707 5.16092 933 ft 126 kts 149°
2026-04-28 14:51 51.82902 5.16655 945 ft 124 kts 149°
2026-04-28 14:51 51.82100 5.17220 939 ft 127 kts 150°
2026-04-28 14:51 51.81295 5.17812 953 ft 128 kts 149°
2026-04-28 14:52 51.80480 5.18407 960 ft 127 kts 149°
2026-04-28 14:52 51.79606 5.18831 936 ft 133 kts 166°
2026-04-28 14:52 51.78704 5.19127 947 ft 134 kts 167°
2026-04-28 14:52 51.77787 5.19383 949 ft 134 kts 165°
2026-04-28 14:53 51.76874 5.19652 945 ft 133 kts 164°
2026-04-28 14:53 51.75961 5.19920 930 ft 133 kts 163°
2026-04-28 14:53 51.75068 5.20181 936 ft 131 kts 163°
2026-04-28 14:53 51.74197 5.20436 948 ft 125 kts 163°
2026-04-28 14:54 51.73349 5.20686 917 ft 128 kts 165°
2026-04-28 14:54 51.72459 5.20958 945 ft 130 kts 167°
2026-04-28 14:54 51.71561 5.21230 950 ft 134 kts 168°
2026-04-28 14:54 51.70630 5.21498 952 ft 135 kts 167°
2026-04-28 14:55 51.69722 5.21751 950 ft 131 kts 163°
2026-04-28 14:55 51.68830 5.22017 932 ft 132 kts 163°
2026-04-28 14:55 51.67941 5.22276 943 ft 128 kts 162°
2026-04-28 14:55 51.67061 5.22595 930 ft 130 kts 161°
2026-04-28 14:56 51.66177 5.22919 946 ft 130 kts 161°
2026-04-28 14:56 51.65298 5.23244 926 ft 131 kts 162°
2026-04-28 14:56 51.64425 5.23566 958 ft 127 kts 161°
2026-04-28 14:56 51.63568 5.23885 948 ft 125 kts 160°
2026-04-28 14:57 51.62716 5.24204 955 ft 124 kts 161°
2026-04-28 14:57 51.62135 5.24430 928 ft 129 kts 163°
2026-04-28 14:57 51.60973 5.24864 943 ft 130 kts 162°
2026-04-28 14:57 51.60094 5.25194 947 ft 131 kts 163°
2026-04-28 14:58 51.59208 5.25523 949 ft 130 kts 161°
2026-04-28 14:58 51.58322 5.25849 943 ft 129 kts 161°
2026-04-28 14:58 51.57464 5.26169 964 ft 125 kts 161°
2026-04-28 14:58 51.56610 5.26490 923 ft 128 kts 162°
2026-04-28 14:59 51.55745 5.26699 921 ft 123 kts 179°
2026-04-28 14:59 51.54924 5.26586 934 ft 111 kts 181°
2026-04-28 14:59 51.54178 5.26448 918 ft 106 kts 179°
2026-04-28 14:59 51.53445 5.26377 902 ft 107 kts 163°
2026-04-28 15:00 51.52761 5.26778 933 ft 106 kts 149°
2026-04-28 15:00 51.52082 5.27311 948 ft 110 kts 147°
2026-04-28 15:00 51.51406 5.27837 1009 ft 107 kts 147°
2026-04-28 15:00 51.50717 5.28377 1017 ft 110 kts 147°
2026-04-28 15:01 51.50016 5.28922 1029 ft 112 kts 148°
2026-04-28 15:01 51.49469 5.29698 1002 ft 104 kts 109°
2026-04-28 15:01 51.49455 5.30804 1020 ft 98 kts 68°
2026-04-28 15:01 51.49889 5.31647 1068 ft 98 kts 57°
2026-04-28 15:02 51.49899 5.32773 1030 ft 115 kts 110°
2026-04-28 15:02 51.49456 5.33839 1037 ft 115 kts 119°
2026-04-28 15:02 51.49059 5.34936 1031 ft 113 kts 112°
2026-04-28 15:02 51.48531 5.35958 1015 ft 120 kts 134°
2026-04-28 15:03 51.47755 5.36444 983 ft 130 kts 185°
2026-04-28 15:03 51.46885 5.35971 995 ft 127 kts 199°
2026-04-28 15:03 51.46097 5.35392 1015 ft 126 kts 207°
2026-04-28 15:03 51.45340 5.34688 1020 ft 126 kts 211°
2026-04-28 15:04 51.44617 5.33871 1022 ft 126 kts 213°
2026-04-28 15:04 51.43926 5.33024 1018 ft 122 kts 200°
2026-04-28 15:04 51.43111 5.33032 1088 ft 110 kts 148°
2026-04-28 15:04 51.43016 5.33934 1074 ft 93 kts 86°
2026-04-28 15:05 51.43128 5.35012 840 ft 102 kts 60°
2026-04-28 15:05 51.43541 5.35776 480 ft 86 kts 42°
2026-04-28 15:05 51.43973 5.36287 179 ft 65 kts 38°
2026-04-28 15:05 51.44275 5.36624 64 ft 41 kts 32°
2026-04-28 15:06 51.44542 5.36928 126 ft 54 kts 38°
2026-04-28 15:06 51.44947 5.37372 219 ft 80 kts 43°
2026-04-28 15:06 51.45392 5.37906 388 ft 89 kts 34°
2026-04-28 15:06 51.45952 5.38480 497 ft 98 kts 33°
2026-04-28 15:07 51.46563 5.39060 623 ft 104 kts 32°
2026-04-28 15:07 51.47210 5.39629 766 ft 106 kts 28°
2026-04-28 15:07 51.47918 5.39843 897 ft 110 kts 351°
2026-04-28 15:07 51.48619 5.39194 976 ft 125 kts 321°
2026-04-28 15:08 51.49024 5.37886 1013 ft 134 kts 285°
2026-04-28 15:08 51.48953 5.36437 1076 ft 136 kts 243°
2026-04-28 15:08 51.48201 5.35486 1012 ft 139 kts 189°
2026-04-28 15:08 51.47313 5.34887 1006 ft 139 kts 203°
2026-04-28 15:09 51.46449 5.34191 1017 ft 138 kts 209°
2026-04-28 15:09 51.45635 5.33300 1031 ft 142 kts 211°
2026-04-28 15:09 51.44814 5.32390 1012 ft 141 kts 215°
2026-04-28 15:09 51.43992 5.31659 1055 ft 125 kts 190°
2026-04-28 15:10 51.43316 5.32110 964 ft 102 kts 127°
2026-04-28 15:10 51.43010 5.33003 913 ft 88 kts 87°
2026-04-28 15:10 51.42999 5.33927 874 ft 84 kts 99°
2026-04-28 15:10 51.43056 5.34821 735 ft 89 kts 70°
2026-04-28 15:11 51.43449 5.35649 454 ft 102 kts 41°
2026-04-28 15:11 51.43975 5.36270 209 ft 80 kts 41°
2026-04-28 15:11 51.44371 5.36726 76 ft 57 kts 43°
2026-04-28 15:11 51.44682 5.37088 130 ft 61 kts 36°
2026-04-28 15:12 51.45056 5.37453 264 ft 71 kts 34°
2026-04-28 15:12 51.45522 5.37947 392 ft 85 kts 36°
2026-04-28 15:12 51.46010 5.38490 617 ft 87 kts 39°
2026-04-28 15:12 51.46518 5.39041 844 ft 88 kts 33°
2026-04-28 15:13 51.47043 5.39548 989 ft 95 kts 14°
2026-04-28 15:13 51.47730 5.39327 1020 ft 112 kts 332°
2026-04-28 15:13 51.48209 5.38198 1028 ft 133 kts 287°
2026-04-28 15:13 51.48122 5.36702 1016 ft 140 kts 247°
2026-04-28 15:14 51.47475 5.35596 1022 ft 136 kts 211°
2026-04-28 15:14 51.46709 5.34711 1010 ft 133 kts 211°
2026-04-28 15:14 51.45957 5.33885 1008 ft 131 kts 210°
2026-04-28 15:14 51.45180 5.33119 1017 ft 130 kts 210°
2026-04-28 15:15 51.44410 5.32360 1016 ft 130 kts 211°
2026-04-28 15:15 51.43640 5.31584 1025 ft 129 kts 210°
2026-04-28 15:15 51.42873 5.30846 1028 ft 127 kts 193°
2026-04-28 15:15 51.42057 5.31030 1056 ft 114 kts 141°
2026-04-28 15:16 51.41708 5.31981 1079 ft 97 kts 79°
2026-04-28 15:16 51.41828 5.33038 976 ft 93 kts 68°
2026-04-28 15:16 51.42035 5.33840 828 ft 73 kts 51°
2026-04-28 15:16 51.42392 5.34377 610 ft 69 kts 40°
2026-04-28 15:17 51.42717 5.34889 518 ft 57 kts 41°
2026-04-28 15:17 51.43064 5.35224 453 ft 62 kts 38°
2026-04-28 15:17 51.43446 5.35707 350 ft 72 kts 41°
2026-04-28 15:17 51.43808 5.36135 175 ft 57 kts 33°
2026-04-28 15:18 51.44173 5.36516 97 ft 57 kts 37°
2026-04-28 15:18 51.44449 5.36836 63 ft 53 kts 34°
2026-04-28 15:18 51.44735 5.37142 63 ft 38 kts 40°
2026-04-28 15:18 51.44920 5.37352 63 ft 29 kts 35°
2026-04-28 15:19 51.45087 5.37526 60 ft 27 kts 58°
2026-04-28 15:19 51.45226 5.37701 60 ft 27 kts 30°
2026-04-28 15:19 51.45370 5.37868 60 ft 23 kts 96°
2026-04-28 15:19 51.45318 5.38016 60 ft 0 kts 126°
2026-04-28 15:21 51.45317 5.38020 60 ft 3 kts 125°
2026-04-28 15:21 51.45273 5.38121 60 ft 16 kts 120°
2026-04-28 15:21 51.45271 5.38295 60 ft 21 kts 37°
2026-04-28 15:21 51.45402 5.38400 58 ft 19 kts 324°
2026-04-28 15:22 51.45475 5.38243 57 ft 15 kts 306°
2026-04-28 15:22 51.45480 5.38233 57 ft 0 kts 308°
2026-04-28 15:22 51.45503 5.38187 56 ft 12 kts 298°
2026-04-28 15:22 51.45577 5.38011 59 ft 20 kts 303°
2026-04-28 15:23 51.45612 5.37933 60 ft 0 kts 311°
2026-04-28 15:25 51.45625 5.37907 60 ft 7 kts 312°
2026-04-28 15:25 51.45686 5.37923 60 ft 12 kts 32°
2026-04-28 15:25 51.45768 5.38021 59 ft 17 kts 32°
2026-04-28 15:26 51.45847 5.37951 60 ft 14 kts 310°
2026-04-28 15:26 51.45886 5.37864 58 ft 12 kts 306°
2026-04-28 15:26 51.45909 5.37826 55 ft 2 kts 235°
2026-04-28 15:26 51.45875 5.37833 57 ft 14 kts 210°
2026-04-28 15:27 51.45759 5.37598 58 ft 35 kts 240°
2026-04-28 15:27 51.45646 5.37271 65 ft 28 kts 243°
2026-04-28 15:27 51.45561 5.37036 68 ft 20 kts 230°
2026-04-28 15:27 51.45520 5.37025 70 ft 0 kts 142°
2026-04-28 15:28 51.45508 5.37040 70 ft 6 kts 150°
2026-04-28 15:28 51.45493 5.37021 71 ft 8 kts 247°
2026-04-28 15:29 51.45426 5.36903 73 ft 9 kts 205°
2026-04-28 15:29 51.45421 5.36899 73 ft 0 kts 203°